Location: Kershaw
(34.5481°N, 80.5823°W)
Time: 15:13:36
(UTC+00:00)

Vanguard 1 Rocket - Pass Details

Date: 08 October 2022
Orbit: 650 x 4225 km, 34.3° (Epoch: 08 December)

Event Time Altitude Azimuth Distance (km) Brightness Sun altitude
Rises 21:45:49 0° 225° (SW) 8,134 13.4 13.5°
Reaches altitude 10° 21:51:22 10° 221° (SW) 7,301 13.2 12.4°
Maximum altitude 22:16:39 58° 150° (SSE) 4,267 10.8 7.3°
Drops below altitude 10° 22:34:50 10° 78° (ENE) 5,524 10.7 3.6°
Sets 22:38:16 0° 74° (ENE) 6,155 10.9 2.9°
